SUD020 YBAS-NFFN

Flight info

Callsign SUD020
Flight time N/A
Altitude 37000
Route PULOL T11 ROM G326 WOODY Y79 BN B578 MEPEM/N0442F390 B578 TEBUR B602 ATPEN B599 AGUTA
Aircraft A20N/M-SDE2E3FGHIRWXY/LB1

Departure

Time 2026-04-29 22:54
Airport Alice Springs Airport (YBAS)

Arrival

Time N/A
Airport Nadi International Airport (NFFN)
Time Latitude Longitude Altitude Speed Heading
2026-04-29 22:40 -23.80307 133.90180 1795 ft 0 kts 62°
2026-04-29 22:44 -23.80312 133.90168 1793 ft 4 kts 75°
2026-04-29 22:44 -23.80312 133.90146 1793 ft 4 kts 146°
2026-04-29 22:44 -23.80299 133.90143 1799 ft 1 kts 193°
2026-04-29 22:45 -23.80297 133.90143 1793 ft 0 kts 193°
2026-04-29 22:47 -23.80308 133.90140 1793 ft 3 kts 192°
2026-04-29 22:47 -23.80327 133.90138 1795 ft 3 kts 177°
2026-04-29 22:47 -23.80354 133.90160 1795 ft 6 kts 129°
2026-04-29 22:47 -23.80378 133.90204 1796 ft 7 kts 119°
2026-04-29 22:48 -23.80396 133.90240 1796 ft 5 kts 119°
2026-04-29 22:48 -23.80415 133.90278 1794 ft 6 kts 117°
2026-04-29 22:48 -23.80436 133.90325 1796 ft 7 kts 116°
2026-04-29 22:48 -23.80467 133.90368 1796 ft 8 kts 142°
2026-04-29 22:49 -23.80509 133.90371 1795 ft 5 kts 205°
2026-04-29 22:49 -23.80561 133.90340 1795 ft 10 kts 209°
2026-04-29 22:49 -23.80617 133.90327 1793 ft 10 kts 166°
2026-04-29 22:49 -23.80671 133.90397 1790 ft 12 kts 125°
2026-04-29 22:50 -23.80716 133.90470 1791 ft 11 kts 122°
2026-04-29 22:50 -23.80754 133.90548 1790 ft 13 kts 117°
2026-04-29 22:50 -23.80803 133.90644 1789 ft 16 kts 120°
2026-04-29 22:50 -23.80859 133.90745 1789 ft 15 kts 121°
2026-04-29 22:51 -23.80912 133.90840 1789 ft 14 kts 121°
2026-04-29 22:51 -23.80954 133.90917 1789 ft 13 kts 120°
2026-04-29 22:51 -23.81046 133.91086 1790 ft 12 kts 120°
2026-04-29 22:52 -23.81089 133.91169 1790 ft 14 kts 119°
2026-04-29 22:52 -23.81142 133.91274 1789 ft 17 kts 115°
2026-04-29 22:52 -23.81170 133.91389 1787 ft 10 kts 127°
2026-04-29 22:52 -23.81206 133.91383 1788 ft 4 kts 271°
2026-04-29 22:53 -23.81178 133.91335 1788 ft 13 kts 305°
2026-04-29 22:53 -23.81028 133.91060 1789 ft 75 kts 300°
2026-04-29 22:53 -23.80649 133.90351 1792 ft 144 kts 300°
2026-04-29 22:53 -23.80057 133.89238 1931 ft 183 kts 299°
2026-04-29 22:54 -23.79441 133.88047 2645 ft 181 kts 301°
2026-04-29 22:54 -23.78762 133.86839 3136 ft 197 kts 308°
2026-04-29 22:54 -23.77816 133.85635 3394 ft 221 kts 322°
2026-04-29 22:54 -23.76486 133.84645 3665 ft 242 kts 338°
2026-04-29 22:55 -23.74832 133.84104 4072 ft 254 kts 355°
2026-04-29 22:55 -23.73057 133.84158 4700 ft 257 kts 13°
2026-04-29 22:55 -23.71355 133.84774 5393 ft 260 kts 27°
2026-04-29 22:55 -23.69806 133.85793 6114 ft 262 kts 38°
2026-04-29 22:56 -23.68475 133.87127 6813 ft 266 kts 49°
2026-04-29 22:56 -23.67382 133.88775 7485 ft 271 kts 60°
2026-04-29 22:56 -23.66611 133.90660 8167 ft 276 kts 72°
2026-04-29 22:56 -23.66211 133.92731 8876 ft 281 kts 84°
2026-04-29 22:57 -23.66226 133.94874 9611 ft 285 kts 97°
2026-04-29 22:57 -23.66650 133.97008 10225 ft 294 kts 107°
2026-04-29 22:57 -23.67302 133.99206 10497 ft 314 kts 109°
2026-04-29 22:57 -23.68036 134.01516 10749 ft 332 kts 110°
2026-04-29 22:58 -23.68799 134.03909 11142 ft 343 kts 109°
2026-04-29 22:58 -23.69582 134.06386 11681 ft 349 kts 109°
2026-04-29 22:58 -23.70377 134.08913 12276 ft 353 kts 109°
2026-04-29 22:58 -23.71177 134.11467 12855 ft 357 kts 109°
2026-04-29 22:59 -23.71983 134.14044 13419 ft 362 kts 110°
2026-04-29 22:59 -23.72800 134.16663 13975 ft 366 kts 110°
2026-04-29 22:59 -23.73625 134.19307 14466 ft 371 kts 110°
2026-04-29 22:59 -23.74458 134.21981 14961 ft 375 kts 109°
2026-04-29 23:00 -23.75301 134.24690 15457 ft 379 kts 110°
2026-04-29 23:00 -23.76152 134.27423 15966 ft 383 kts 110°
2026-04-29 23:00 -23.77011 134.30189 16476 ft 387 kts 110°
2026-04-29 23:00 -23.77880 134.32986 16975 ft 390 kts 110°
2026-04-29 23:01 -23.78752 134.35796 17465 ft 394 kts 110°
2026-04-29 23:01 -23.79635 134.38644 17947 ft 397 kts 110°
2026-04-29 23:01 -23.80525 134.41517 18422 ft 401 kts 110°
2026-04-29 23:01 -23.81475 134.44373 18871 ft 403 kts 113°
2026-04-29 23:02 -23.82659 134.47155 19253 ft 406 kts 120°
2026-04-29 23:02 -23.84053 134.49839 19660 ft 408 kts 122°
2026-04-29 23:02 -23.85516 134.52520 20098 ft 412 kts 123°
2026-04-29 23:02 -23.86994 134.55217 20507 ft 415 kts 123°
2026-04-29 23:03 -23.88478 134.57932 20941 ft 419 kts 123°
2026-04-29 23:03 -23.89975 134.60680 21388 ft 422 kts 123°
2026-04-29 23:03 -23.91480 134.63447 21855 ft 425 kts 123°
2026-04-29 23:03 -23.92993 134.66232 22310 ft 428 kts 123°
2026-04-29 23:04 -23.94514 134.69036 22727 ft 431 kts 124°
2026-04-29 23:04 -23.96051 134.71873 23163 ft 435 kts 124°
2026-04-29 23:04 -23.97596 134.74726 23566 ft 438 kts 124°
2026-04-29 23:04 -23.99145 134.77613 23942 ft 442 kts 123°
2026-04-29 23:05 -24.00574 134.80616 24288 ft 447 kts 118°
2026-04-29 23:05 -24.01772 134.83777 24643 ft 452 kts 112°
2026-04-29 23:05 -24.02714 134.87069 24993 ft 456 kts 108°
2026-04-29 23:05 -24.03532 134.90436 25334 ft 459 kts 107°
2026-04-29 23:06 -24.04323 134.93820 25668 ft 461 kts 107°
2026-04-29 23:06 -24.05114 134.97235 26006 ft 463 kts 107°
2026-04-29 23:06 -24.05907 135.00659 26342 ft 466 kts 107°
2026-04-29 23:06 -24.06701 135.04094 26678 ft 468 kts 107°
2026-04-29 23:07 -24.07502 135.07562 27001 ft 470 kts 107°
2026-04-29 23:07 -24.08295 135.10992 27327 ft 472 kts 107°
2026-04-29 23:07 -24.09101 135.14484 27639 ft 475 kts 107°
2026-04-29 23:07 -24.09910 135.17993 27950 ft 477 kts 106°
2026-04-29 23:08 -24.10721 135.21517 28244 ft 479 kts 106°
2026-04-29 23:08 -24.11537 135.25063 28533 ft 481 kts 106°
2026-04-29 23:08 -24.12356 135.28627 28809 ft 484 kts 106°
2026-04-29 23:08 -24.13178 135.32208 29116 ft 486 kts 106°
2026-04-29 23:09 -24.14000 135.35793 29405 ft 488 kts 106°
2026-04-29 23:09 -24.14828 135.39408 29702 ft 490 kts 106°
2026-04-29 23:09 -24.15655 135.43024 30000 ft 491 kts 106°
2026-04-29 23:09 -24.16487 135.46665 30277 ft 493 kts 106°
2026-04-29 23:10 -24.17318 135.50305 30585 ft 493 kts 106°
2026-04-29 23:10 -24.18146 135.53941 30918 ft 492 kts 107°
2026-04-29 23:10 -24.18972 135.57567 31261 ft 491 kts 107°
2026-04-29 23:10 -24.19797 135.61198 31610 ft 490 kts 107°
2026-04-29 23:11 -24.20618 135.64813 31950 ft 489 kts 107°
2026-04-29 23:11 -24.21438 135.68428 32274 ft 488 kts 107°
2026-04-29 23:11 -24.22256 135.72034 32591 ft 488 kts 107°
2026-04-29 23:11 -24.23071 135.75636 32902 ft 487 kts 107°
2026-04-29 23:12 -24.23885 135.79234 33201 ft 487 kts 107°
2026-04-29 23:12 -24.24700 135.82842 33457 ft 487 kts 107°
2026-04-29 23:12 -24.25512 135.86441 33733 ft 487 kts 107°
2026-04-29 23:12 -24.26323 135.90044 34021 ft 486 kts 107°
2026-04-29 23:13 -24.27132 135.93639 34286 ft 486 kts 107°
2026-04-29 23:13 -24.27939 135.97227 34501 ft 486 kts 107°
2026-04-29 23:13 -24.28748 136.00832 34670 ft 487 kts 107°
2026-04-29 23:13 -24.29556 136.04435 34854 ft 487 kts 107°
2026-04-29 23:14 -24.30363 136.08036 35061 ft 487 kts 107°
2026-04-29 23:14 -24.31170 136.11643 35264 ft 487 kts 107°
2026-04-29 23:14 -24.31975 136.15247 35439 ft 487 kts 107°
2026-04-29 23:14 -24.32780 136.18851 35619 ft 487 kts 107°
2026-04-29 23:15 -24.33583 136.22455 35771 ft 488 kts 107°
2026-04-29 23:15 -24.34388 136.26071 35944 ft 488 kts 107°
2026-04-29 23:15 -24.35191 136.29679 36119 ft 487 kts 107°
2026-04-29 23:15 -24.35994 136.33294 36298 ft 487 kts 107°
2026-04-29 23:16 -24.36795 136.36907 36461 ft 487 kts 107°
2026-04-29 23:16 -24.37595 136.40518 36620 ft 487 kts 107°
2026-04-29 23:16 -24.38394 136.44125 36776 ft 487 kts 107°
2026-04-29 23:16 -24.39182 136.47693 36929 ft 487 kts 107°
2026-04-29 23:17 -24.39980 136.51305 37080 ft 487 kts 107°
2026-04-29 23:17 -24.40776 136.54914 37197 ft 488 kts 107°
2026-04-29 23:17 -24.42370 136.62156 37212 ft 488 kts 107°
2026-04-29 23:18 -24.43956 136.69377 37210 ft 487 kts 107°
2026-04-29 23:18 -24.45539 136.76601 37211 ft 487 kts 107°
2026-04-29 23:19 -24.47114 136.83825 37208 ft 486 kts 107°
2026-04-29 23:19 -24.48683 136.91042 37208 ft 486 kts 107°
2026-04-29 23:20 -24.50246 136.98254 37229 ft 486 kts 106°
2026-04-29 23:20 -24.51553 137.04297 37214 ft 485 kts 106°
2026-04-29 23:21 -24.53363 137.12685 37214 ft 485 kts 106°
2026-04-29 23:21 -24.54652 137.18674 37214 ft 485 kts 106°
2026-04-29 23:22 -24.56203 137.25895 37211 ft 485 kts 106°
2026-04-29 23:22 -24.57748 137.33107 37211 ft 485 kts 106°
2026-04-29 23:23 -24.59291 137.40328 37218 ft 486 kts 106°
2026-04-29 23:23 -24.60832 137.47555 37211 ft 486 kts 106°
2026-04-29 23:24 -24.62367 137.54775 37214 ft 486 kts 106°
2026-04-29 23:24 -24.63901 137.62006 37212 ft 486 kts 106°
2026-04-29 23:25 -24.65429 137.69232 37214 ft 486 kts 106°
2026-04-29 23:25 -24.66956 137.76468 37211 ft 486 kts 106°
2026-04-29 23:26 -24.68477 137.83697 37214 ft 486 kts 105°
2026-04-29 23:26 -24.69996 137.90933 37213 ft 486 kts 105°
2026-04-29 23:27 -24.71513 137.98180 37214 ft 486 kts 105°
2026-04-29 23:27 -24.73026 138.05427 37214 ft 486 kts 105°
2026-04-29 23:28 -24.74537 138.12680 37213 ft 487 kts 105°
2026-04-29 23:28 -24.76045 138.19939 37216 ft 487 kts 105°
2026-04-29 23:29 -24.77548 138.27191 37219 ft 487 kts 105°
2026-04-29 23:29 -24.79050 138.34460 37220 ft 487 kts 105°
2026-04-29 23:30 -24.80547 138.41722 37222 ft 487 kts 105°
2026-04-29 23:30 -24.82044 138.49000 37222 ft 487 kts 105°
2026-04-29 23:31 -24.83535 138.56272 37223 ft 488 kts 105°
2026-04-29 23:31 -24.85026 138.63558 37224 ft 488 kts 105°
2026-04-29 23:32 -24.86512 138.70846 37232 ft 488 kts 105°
2026-04-29 23:32 -24.87993 138.78124 37232 ft 487 kts 105°
2026-04-29 23:33 -24.89473 138.85413 37234 ft 488 kts 105°
2026-04-29 23:33 -24.90948 138.92702 37220 ft 488 kts 105°
2026-04-29 23:34 -24.92421 138.99995 37235 ft 488 kts 105°
2026-04-29 23:34 -24.93890 139.07292 37225 ft 488 kts 105°
2026-04-29 23:35 -24.95356 139.14593 37234 ft 488 kts 104°
2026-04-29 23:35 -24.96819 139.21899 37237 ft 488 kts 104°
2026-04-29 23:36 -24.98278 139.29200 37227 ft 488 kts 104°
2026-04-29 23:36 -24.99734 139.36509 37231 ft 488 kts 104°
2026-04-29 23:37 -25.01177 139.43774 37235 ft 488 kts 104°
2026-04-29 23:37 -25.02626 139.51085 37234 ft 488 kts 104°
2026-04-29 23:38 -25.04072 139.58403 37241 ft 489 kts 104°
2026-04-29 23:38 -25.05516 139.65730 37239 ft 489 kts 104°
2026-04-29 23:39 -25.06957 139.73065 37228 ft 490 kts 104°
2026-04-29 23:39 -25.08397 139.80410 37235 ft 490 kts 104°
2026-04-29 23:40 -25.09834 139.87761 37241 ft 490 kts 104°
2026-04-29 23:40 -25.11265 139.95104 37233 ft 490 kts 104°
2026-04-29 23:41 -25.12694 140.02458 37231 ft 490 kts 104°
2026-04-29 23:41 -25.14119 140.09807 37239 ft 490 kts 104°
2026-04-29 23:42 -25.15539 140.17154 37232 ft 490 kts 104°
2026-04-29 23:42 -25.16956 140.24503 37243 ft 490 kts 104°
2026-04-29 23:43 -25.18370 140.31863 37238 ft 490 kts 104°
2026-04-29 23:43 -25.19780 140.39218 37248 ft 490 kts 104°
2026-04-29 23:44 -25.21186 140.46569 37239 ft 490 kts 103°
2026-04-29 23:44 -25.22589 140.53932 37243 ft 490 kts 103°
2026-04-29 23:45 -25.23986 140.61283 37238 ft 490 kts 103°
2026-04-29 23:45 -25.25381 140.68644 37237 ft 490 kts 103°
2026-04-29 23:46 -25.26772 140.76004 37239 ft 489 kts 103°
2026-04-29 23:46 -25.28160 140.83369 37242 ft 489 kts 103°
2026-04-29 23:47 -25.29544 140.90730 37246 ft 489 kts 103°
2026-04-29 23:47 -25.30923 140.98094 37247 ft 489 kts 103°
2026-04-29 23:48 -25.32298 141.05453 37247 ft 489 kts 103°
2026-04-29 23:48 -25.33670 141.12817 37252 ft 489 kts 103°
2026-04-29 23:49 -25.35039 141.20186 37245 ft 489 kts 103°
2026-04-29 23:49 -25.36403 141.27561 37247 ft 489 kts 103°
2026-04-29 23:50 -25.37763 141.34927 37254 ft 489 kts 103°
2026-04-29 23:51 -25.39798 141.45998 37245 ft 490 kts 103°
2026-04-29 23:51 -25.41150 141.53376 37251 ft 490 kts 103°
2026-04-29 23:52 -25.42499 141.60759 37250 ft 490 kts 103°
2026-04-29 23:52 -25.43836 141.68104 37252 ft 490 kts 103°
2026-04-29 23:53 -25.45189 141.75552 37258 ft 490 kts 103°
2026-04-29 23:53 -25.46527 141.82944 37263 ft 490 kts 103°
2026-04-29 23:54 -25.47855 141.90303 37261 ft 490 kts 103°
2026-04-29 23:54 -25.49187 141.97705 37264 ft 490 kts 103°
2026-04-29 23:55 -25.50516 142.05111 37265 ft 491 kts 102°
2026-04-29 23:55 -25.51841 142.12517 37267 ft 490 kts 102°
2026-04-29 23:56 -25.53160 142.19914 37264 ft 490 kts 102°
2026-04-29 23:56 -25.54486 142.27372 37261 ft 490 kts 102°
2026-04-29 23:57 -25.55789 142.34727 37267 ft 489 kts 102°
2026-04-29 23:57 -25.57094 142.42113 37268 ft 489 kts 102°
2026-04-29 23:58 -25.58398 142.49514 37269 ft 489 kts 102°
2026-04-29 23:58 -25.59697 142.56907 37271 ft 488 kts 102°
2026-04-29 23:59 -25.60988 142.64283 37271 ft 487 kts 102°
2026-04-29 23:59 -25.62275 142.71655 37270 ft 487 kts 102°
2026-04-30 00:00 -25.63557 142.79025 37273 ft 487 kts 102°
2026-04-30 00:00 -25.64836 142.86400 37275 ft 487 kts 102°
2026-04-30 00:01 -25.66110 142.93763 37276 ft 487 kts 102°
2026-04-30 00:01 -25.67381 143.01139 37275 ft 487 kts 101°
2026-04-30 00:02 -25.68646 143.08495 37273 ft 486 kts 102°
2026-04-30 00:02 -25.69908 143.15866 37274 ft 486 kts 101°
2026-04-30 00:03 -25.71158 143.23182 37276 ft 486 kts 101°
2026-04-30 00:03 -25.72411 143.30545 37276 ft 485 kts 101°
2026-04-30 00:04 -25.73659 143.37898 37276 ft 485 kts 101°
2026-04-30 00:04 -25.74903 143.45251 37282 ft 485 kts 101°
2026-04-30 00:05 -25.76143 143.52603 37281 ft 485 kts 101°
2026-04-30 00:05 -25.77376 143.59943 37281 ft 484 kts 101°
2026-04-30 00:06 -25.78606 143.67285 37284 ft 484 kts 101°
2026-04-30 00:06 -25.79628 143.73402 37289 ft 485 kts 101°
2026-04-30 00:07 -25.80854 143.80762 37289 ft 485 kts 101°
2026-04-30 00:07 -25.82075 143.88116 37288 ft 484 kts 101°
2026-04-30 00:08 -25.83292 143.95470 37286 ft 484 kts 101°
2026-04-30 00:08 -25.84505 144.02820 37288 ft 484 kts 101°
2026-04-30 00:09 -25.85715 144.10177 37288 ft 484 kts 101°
2026-04-30 00:09 -25.86920 144.17532 37289 ft 484 kts 101°
2026-04-30 00:10 -25.88122 144.24891 37293 ft 484 kts 101°
2026-04-30 00:10 -25.89321 144.32255 37293 ft 485 kts 101°
2026-04-30 00:11 -25.90515 144.39626 37294 ft 485 kts 101°
2026-04-30 00:11 -25.91702 144.46997 37295 ft 485 kts 101°
2026-04-30 00:12 -25.92879 144.54321 37298 ft 485 kts 101°
2026-04-30 00:12 -25.94059 144.61694 37298 ft 484 kts 100°
2026-04-30 00:13 -25.95243 144.69109 37296 ft 484 kts 100°
2026-04-30 00:13 -25.96406 144.76423 37304 ft 484 kts 100°
2026-04-30 00:14 -25.97576 144.83802 37300 ft 484 kts 100°
2026-04-30 00:14 -25.98741 144.91177 37301 ft 484 kts 100°
2026-04-30 00:15 -25.99902 144.98551 37306 ft 484 kts 100°
2026-04-30 00:15 -26.01058 145.05923 37305 ft 484 kts 100°
2026-04-30 00:16 -26.02212 145.13301 37308 ft 484 kts 100°
2026-04-30 00:16 -26.03362 145.20684 37306 ft 484 kts 100°
2026-04-30 00:17 -26.04508 145.28059 37310 ft 484 kts 100°
2026-04-30 00:17 -26.05647 145.35425 37309 ft 483 kts 100°
2026-04-30 00:18 -26.06782 145.42784 37311 ft 482 kts 100°
2026-04-30 00:18 -26.07912 145.50138 37311 ft 482 kts 100°
2026-04-30 00:19 -26.09039 145.57494 37310 ft 482 kts 99°
2026-04-30 00:19 -26.10160 145.64842 37309 ft 482 kts 99°
2026-04-30 00:20 -26.11279 145.72200 37309 ft 482 kts 99°
2026-04-30 00:20 -26.12393 145.79553 37312 ft 482 kts 99°
2026-04-30 00:21 -26.13503 145.86905 37311 ft 482 kts 99°
2026-04-30 00:21 -26.14610 145.94260 37314 ft 482 kts 99°
2026-04-30 00:22 -26.15711 146.01607 37315 ft 482 kts 99°
2026-04-30 00:22 -26.16803 146.08918 37314 ft 482 kts 99°
2026-04-30 00:23 -26.17898 146.16272 37310 ft 482 kts 99°
2026-04-30 00:23 -26.18989 146.23627 37314 ft 482 kts 99°
2026-04-30 00:24 -26.20077 146.30987 37316 ft 482 kts 99°
2026-04-30 00:24 -26.21160 146.38342 37316 ft 481 kts 99°
2026-04-30 00:25 -26.22238 146.45695 37316 ft 481 kts 99°
2026-04-30 00:25 -26.23312 146.53037 37316 ft 481 kts 99°
2026-04-30 00:26 -26.24382 146.60386 37317 ft 481 kts 99°
2026-04-30 00:26 -26.25450 146.67745 37320 ft 481 kts 99°
2026-04-30 00:27 -26.26513 146.75098 37321 ft 481 kts 99°
2026-04-30 00:27 -26.27572 146.82450 37317 ft 481 kts 99°
2026-04-30 00:28 -26.28627 146.89806 37319 ft 481 kts 99°
2026-04-30 00:28 -26.29678 146.97156 37322 ft 481 kts 99°
2026-04-30 00:29 -26.30726 147.04515 37320 ft 481 kts 99°
2026-04-30 00:29 -26.31770 147.11874 37325 ft 481 kts 99°
2026-04-30 00:30 -26.32810 147.19231 37329 ft 480 kts 99°
2026-04-30 00:30 -26.33845 147.26584 37330 ft 480 kts 99°
2026-04-30 00:31 -26.34878 147.33946 37330 ft 480 kts 99°
2026-04-30 00:31 -26.35900 147.41256 37337 ft 480 kts 99°
2026-04-30 00:32 -26.36923 147.48608 37337 ft 480 kts 99°
2026-04-30 00:32 -26.37942 147.55959 37334 ft 480 kts 99°
2026-04-30 00:33 -26.38959 147.63321 37334 ft 480 kts 98°
2026-04-30 00:33 -26.39972 147.70681 37341 ft 480 kts 98°
2026-04-30 00:34 -26.40981 147.78042 37343 ft 480 kts 98°
2026-04-30 00:34 -26.41985 147.85396 37343 ft 480 kts 98°
2026-04-30 00:35 -26.42987 147.92760 37337 ft 480 kts 98°
2026-04-30 00:35 -26.43985 148.00133 37337 ft 481 kts 98°
2026-04-30 00:36 -26.44980 148.07502 37340 ft 481 kts 98°
2026-04-30 00:36 -26.45971 148.14880 37340 ft 481 kts 98°
2026-04-30 00:37 -26.46959 148.22256 37344 ft 481 kts 98°
2026-04-30 00:37 -26.47941 148.29627 37341 ft 480 kts 98°
2026-04-30 00:38 -26.48921 148.37005 37337 ft 480 kts 98°
2026-04-30 00:38 -26.49891 148.44338 37342 ft 480 kts 98°
2026-04-30 00:39 -26.50862 148.51716 37340 ft 481 kts 98°
2026-04-30 00:39 -26.51830 148.59092 37339 ft 481 kts 98°
2026-04-30 00:40 -26.52795 148.66480 37335 ft 481 kts 98°
2026-04-30 00:40 -26.53756 148.73865 37341 ft 481 kts 98°
2026-04-30 00:41 -26.54838 148.81221 37339 ft 480 kts 102°
2026-04-30 00:41 -26.56319 148.88496 37336 ft 480 kts 104°
2026-04-30 00:42 -26.57880 148.95751 37332 ft 480 kts 103°
2026-04-30 00:42 -26.59404 149.03019 37329 ft 480 kts 103°
2026-04-30 00:43 -26.60894 149.10298 37332 ft 480 kts 103°
2026-04-30 00:43 -26.62367 149.17566 37332 ft 480 kts 103°
2026-04-30 00:44 -26.63838 149.24838 37331 ft 480 kts 103°
2026-04-30 00:44 -26.65306 149.32111 37332 ft 480 kts 103°
2026-04-30 00:45 -26.66770 149.39382 37330 ft 480 kts 103°
2026-04-30 00:45 -26.68233 149.46667 37331 ft 480 kts 103°
2026-04-30 00:46 -26.69689 149.53939 37328 ft 480 kts 103°
2026-04-30 00:46 -26.71144 149.61226 37331 ft 480 kts 103°
2026-04-30 00:47 -26.72584 149.68454 37327 ft 479 kts 103°
2026-04-30 00:47 -26.74028 149.75728 37333 ft 479 kts 103°
2026-04-30 00:48 -26.75468 149.83003 37338 ft 479 kts 103°
2026-04-30 00:48 -26.76907 149.90289 37337 ft 479 kts 103°
2026-04-30 00:49 -26.78338 149.97559 37327 ft 479 kts 103°
2026-04-30 00:49 -26.79765 150.04830 37330 ft 478 kts 103°
2026-04-30 00:50 -26.81189 150.12104 37329 ft 478 kts 103°
2026-04-30 00:50 -26.82611 150.19387 37332 ft 478 kts 103°
2026-04-30 00:51 -26.84026 150.26660 37331 ft 478 kts 103°
2026-04-30 00:51 -26.85439 150.33937 37330 ft 478 kts 103°
2026-04-30 00:52 -26.86847 150.41217 37329 ft 478 kts 103°
2026-04-30 00:52 -26.88251 150.48496 37323 ft 478 kts 103°
2026-04-30 00:53 -26.89651 150.55774 37335 ft 478 kts 103°
2026-04-30 00:53 -26.91048 150.63060 37324 ft 478 kts 103°
2026-04-30 00:54 -26.92441 150.70344 37325 ft 478 kts 103°
2026-04-30 00:54 -26.93830 150.77629 37330 ft 478 kts 103°
2026-04-30 00:55 -26.94981 150.83683 37327 ft 477 kts 103°
2026-04-30 00:55 -26.97050 150.94602 37330 ft 477 kts 103°
2026-04-30 00:56 -26.98424 151.01880 37337 ft 477 kts 102°
2026-04-30 00:56 -27.00025 151.10391 37334 ft 477 kts 103°
2026-04-30 00:57 -27.01162 151.16453 37334 ft 478 kts 103°
2026-04-30 00:57 -27.02527 151.23744 37334 ft 478 kts 102°
2026-04-30 00:58 -27.03887 151.31037 37334 ft 478 kts 102°
2026-04-30 00:58 -27.05243 151.38327 37336 ft 478 kts 103°
2026-04-30 00:59 -27.06599 151.45639 37342 ft 479 kts 103°
2026-04-30 00:59 -27.07950 151.52949 37342 ft 479 kts 102°
2026-04-30 01:00 -27.09299 151.60269 37343 ft 479 kts 102°
2026-04-30 01:00 -27.10645 151.67593 37348 ft 479 kts 103°
2026-04-30 01:01 -27.11989 151.74930 37347 ft 480 kts 102°
2026-04-30 01:01 -27.13329 151.82270 37344 ft 480 kts 102°
2026-04-30 01:02 -27.14665 151.89610 37342 ft 480 kts 102°
2026-04-30 01:02 -27.15998 151.96956 37345 ft 480 kts 102°
2026-04-30 01:03 -27.17329 152.04310 37343 ft 481 kts 102°
2026-04-30 01:03 -27.18656 152.11666 37343 ft 481 kts 102°
2026-04-30 01:04 -27.19979 152.19030 37345 ft 481 kts 102°
2026-04-30 01:04 -27.21299 152.26392 37345 ft 481 kts 102°
2026-04-30 01:05 -27.22614 152.33754 37344 ft 481 kts 102°
2026-04-30 01:05 -27.23925 152.41117 37344 ft 481 kts 102°
2026-04-30 01:06 -27.25230 152.48489 37344 ft 481 kts 102°
2026-04-30 01:06 -27.26528 152.55857 37347 ft 481 kts 102°
2026-04-30 01:07 -27.27823 152.63232 37340 ft 481 kts 102°
2026-04-30 01:07 -27.29115 152.70614 37342 ft 481 kts 102°
2026-04-30 01:08 -27.30403 152.77989 37338 ft 481 kts 102°
2026-04-30 01:08 -27.31679 152.85328 37344 ft 481 kts 102°
2026-04-30 01:09 -27.32961 152.92718 37345 ft 482 kts 102°
2026-04-30 01:09 -27.34240 153.00116 37348 ft 482 kts 102°
2026-04-30 01:10 -27.35514 153.07507 37347 ft 482 kts 102°
2026-04-30 01:10 -27.35971 153.15004 37336 ft 482 kts 83°
2026-04-30 01:11 -27.34612 153.22381 37347 ft 483 kts 75°
2026-04-30 01:11 -27.32822 153.29671 37340 ft 484 kts 73°
2026-04-30 01:12 -27.30963 153.36937 37335 ft 484 kts 73°
2026-04-30 01:12 -27.29127 153.44209 37339 ft 484 kts 73°
2026-04-30 01:13 -27.27308 153.51499 37319 ft 484 kts 73°
2026-04-30 01:13 -27.25494 153.58786 37320 ft 484 kts 73°
2026-04-30 01:14 -27.23675 153.66075 37318 ft 484 kts 73°
2026-04-30 01:14 -27.21851 153.73359 37317 ft 484 kts 73°
2026-04-30 01:15 -27.20022 153.80645 37312 ft 485 kts 73°
2026-04-30 01:15 -27.17884 153.87818 37309 ft 484 kts 66°
2026-04-30 01:16 -27.15245 153.94766 37306 ft 484 kts 64°
2026-04-30 01:16 -27.12525 154.01625 37301 ft 484 kts 64°
2026-04-30 01:17 -27.09778 154.08515 37302 ft 484 kts 64°
2026-04-30 01:17 -27.07033 154.15417 37298 ft 484 kts 64°
2026-04-30 01:18 -27.04289 154.22325 37294 ft 485 kts 64°
2026-04-30 01:18 -27.01546 154.29225 37294 ft 485 kts 64°
2026-04-30 01:19 -26.98798 154.36122 37293 ft 485 kts 64°
2026-04-30 01:19 -26.96041 154.43026 37288 ft 485 kts 64°
2026-04-30 01:20 -26.93284 154.49921 37288 ft 485 kts 64°
2026-04-30 01:20 -26.90521 154.56820 37286 ft 485 kts 64°
2026-04-30 01:21 -26.87752 154.63723 37281 ft 485 kts 64°
2026-04-30 01:21 -26.84982 154.70613 37260 ft 485 kts 64°
2026-04-30 01:22 -26.82207 154.77507 37279 ft 486 kts 64°
2026-04-30 01:22 -26.79422 154.84413 37279 ft 486 kts 64°
2026-04-30 01:23 -26.76637 154.91307 37270 ft 486 kts 64°
2026-04-30 01:23 -26.73849 154.98197 37271 ft 486 kts 64°
2026-04-30 01:24 -26.71055 155.05090 37268 ft 486 kts 64°
2026-04-30 01:24 -26.68260 155.11976 37266 ft 486 kts 64°
2026-04-30 01:25 -26.65457 155.18868 37256 ft 487 kts 64°
2026-04-30 01:25 -26.62653 155.25752 37263 ft 487 kts 64°
2026-04-30 01:26 -26.59841 155.32643 37262 ft 487 kts 64°
2026-04-30 01:26 -26.57027 155.39529 37259 ft 487 kts 64°
2026-04-30 01:27 -26.54209 155.46411 37252 ft 487 kts 63°
2026-04-30 01:27 -26.51387 155.53292 37254 ft 487 kts 63°
2026-04-30 01:28 -26.48564 155.60166 37251 ft 487 kts 63°
2026-04-30 01:28 -26.45737 155.67038 37242 ft 487 kts 63°
2026-04-30 01:29 -26.42914 155.73923 37248 ft 488 kts 64°
2026-04-30 01:29 -26.40260 155.80894 37248 ft 488 kts 66°
2026-04-30 01:30 -26.37695 155.87851 37239 ft 489 kts 66°
2026-04-30 01:30 -26.35100 155.94853 37245 ft 489 kts 66°
2026-04-30 01:31 -26.32485 156.01849 37236 ft 489 kts 66°
2026-04-30 01:31 -26.29862 156.08833 37230 ft 489 kts 65°
2026-04-30 01:32 -26.27233 156.15818 37227 ft 489 kts 65°
2026-04-30 01:32 -26.24597 156.22809 37237 ft 489 kts 65°
2026-04-30 01:33 -26.21959 156.29795 37227 ft 490 kts 65°
2026-04-30 01:33 -26.19316 156.36784 37228 ft 490 kts 65°
2026-04-30 01:34 -26.16669 156.43771 37224 ft 490 kts 65°
2026-04-30 01:34 -26.14019 156.50754 37218 ft 490 kts 65°
2026-04-30 01:35 -26.11364 156.57738 37224 ft 490 kts 65°
2026-04-30 01:35 -26.08704 156.64721 37219 ft 490 kts 65°
2026-04-30 01:36 -26.06042 156.71700 37207 ft 491 kts 65°
2026-04-30 01:36 -26.03370 156.78693 37220 ft 491 kts 65°
2026-04-30 01:37 -26.00696 156.85679 37222 ft 491 kts 65°
2026-04-30 01:37 -25.98019 156.92660 37213 ft 491 kts 65°
2026-04-30 01:38 -25.95355 156.99596 37214 ft 491 kts 65°
2026-04-30 01:38 -25.92673 157.06568 37204 ft 491 kts 65°
2026-04-30 01:39 -25.89984 157.13543 37205 ft 491 kts 65°
2026-04-30 01:39 -25.87294 157.20511 37202 ft 491 kts 65°
2026-04-30 01:40 -25.84602 157.27472 37199 ft 491 kts 65°
2026-04-30 01:40 -25.81903 157.34440 37199 ft 491 kts 65°
2026-04-30 01:41 -25.79207 157.41388 37196 ft 491 kts 65°
2026-04-30 01:41 -25.76959 157.47175 37186 ft 491 kts 65°
2026-04-30 01:42 -25.74252 157.54128 37189 ft 491 kts 65°
2026-04-30 01:42 -25.71543 157.61077 37191 ft 491 kts 65°
2026-04-30 01:43 -25.68833 157.68017 37164 ft 490 kts 65°
2026-04-30 01:43 -25.66120 157.74954 37179 ft 492 kts 65°
2026-04-30 01:44 -25.63393 157.81912 37185 ft 492 kts 65°
2026-04-30 01:44 -25.60666 157.88862 37183 ft 492 kts 65°
2026-04-30 01:45 -25.57938 157.95801 37173 ft 491 kts 65°
2026-04-30 01:45 -25.55208 158.02735 37174 ft 491 kts 65°
2026-04-30 01:46 -25.52480 158.09650 37171 ft 491 kts 65°
2026-04-30 01:46 -25.49744 158.16576 37168 ft 491 kts 65°
2026-04-30 01:47 -25.47009 158.23487 37168 ft 491 kts 64°
2026-04-30 01:47 -25.44265 158.30409 37161 ft 491 kts 64°
2026-04-30 01:48 -25.41518 158.37330 37156 ft 491 kts 64°
2026-04-30 01:48 -25.38768 158.44245 37156 ft 491 kts 64°
2026-04-30 01:49 -25.36014 158.51159 37164 ft 491 kts 64°
2026-04-30 01:49 -25.33257 158.58068 37152 ft 491 kts 64°
2026-04-30 01:50 -25.30496 158.64979 37151 ft 491 kts 64°
2026-04-30 01:50 -25.27733 158.71882 37151 ft 491 kts 64°
2026-04-30 01:51 -25.24963 158.78790 37143 ft 493 kts 64°
2026-04-30 01:51 -25.22181 158.85717 37142 ft 494 kts 64°
2026-04-30 01:52 -25.19412 158.92603 37143 ft 493 kts 64°
2026-04-30 01:52 -25.16628 158.99515 37138 ft 493 kts 64°
2026-04-30 01:53 -25.13839 159.06427 37138 ft 493 kts 64°
2026-04-30 01:53 -25.11044 159.13341 37138 ft 493 kts 64°
2026-04-30 01:54 -25.08249 159.20247 37142 ft 493 kts 64°
2026-04-30 01:54 -25.05453 159.27143 37116 ft 492 kts 64°
2026-04-30 01:55 -25.02650 159.34043 37132 ft 494 kts 64°
2026-04-30 01:55 -24.99835 159.40963 37124 ft 495 kts 64°
2026-04-30 01:56 -24.96997 159.47931 37123 ft 495 kts 64°
2026-04-30 01:56 -24.94176 159.54845 37132 ft 495 kts 64°
2026-04-30 01:57 -24.91355 159.61749 37122 ft 494 kts 64°
2026-04-30 01:57 -24.88534 159.68640 37116 ft 493 kts 64°
2026-04-30 01:58 -24.85728 159.75483 37116 ft 493 kts 63°
2026-04-30 01:58 -24.82901 159.82367 37107 ft 494 kts 63°
2026-04-30 01:59 -24.78638 159.92727 37113 ft 495 kts 63°
2026-04-30 02:00 -24.75794 159.99628 37113 ft 495 kts 63°
2026-04-30 02:00 -24.72948 160.06521 37113 ft 495 kts 63°
2026-04-30 02:01 -24.70097 160.13415 37113 ft 495 kts 63°
2026-04-30 02:01 -24.67245 160.20302 37114 ft 495 kts 63°
2026-04-30 02:02 -24.64394 160.27174 37101 ft 494 kts 63°
2026-04-30 02:02 -24.61544 160.34034 37076 ft 493 kts 63°
2026-04-30 02:03 -24.58684 160.40904 37105 ft 496 kts 63°
2026-04-30 02:03 -24.55804 160.47793 37102 ft 496 kts 63°
2026-04-30 02:04 -24.52922 160.54677 37108 ft 496 kts 62°
2026-04-30 02:04 -24.50040 160.61549 37099 ft 495 kts 62°
2026-04-30 02:05 -24.47158 160.68413 37098 ft 495 kts 62°
2026-04-30 02:05 -24.44294 160.75224 37097 ft 495 kts 62°
2026-04-30 02:06 -24.41407 160.82080 37096 ft 495 kts 62°
2026-04-30 02:06 -24.38516 160.88933 37093 ft 495 kts 62°
2026-04-30 02:07 -24.35618 160.95793 37094 ft 496 kts 62°
2026-04-30 02:07 -24.32713 161.02658 37095 ft 496 kts 62°
2026-04-30 02:08 -24.29810 161.09510 37094 ft 496 kts 62°
2026-04-30 02:08 -24.26898 161.16372 37092 ft 496 kts 62°
2026-04-30 02:09 -24.23988 161.23219 37090 ft 496 kts 62°
2026-04-30 02:09 -24.21072 161.30070 37093 ft 495 kts 62°
2026-04-30 02:10 -24.18157 161.36906 37090 ft 495 kts 62°
2026-04-30 02:10 -24.15239 161.43741 37087 ft 496 kts 62°
2026-04-30 02:11 -24.12314 161.50581 37084 ft 497 kts 62°
2026-04-30 02:11 -24.09382 161.57427 37101 ft 497 kts 62°
2026-04-30 02:12 -24.06453 161.64260 37094 ft 495 kts 61°
2026-04-30 02:12 -24.03528 161.71069 37093 ft 494 kts 61°
2026-04-30 02:13 -24.00601 161.77874 37088 ft 495 kts 61°
2026-04-30 02:13 -23.97669 161.84680 37088 ft 495 kts 61°
2026-04-30 02:14 -23.94735 161.91480 37087 ft 495 kts 61°
2026-04-30 02:14 -23.91797 161.98281 37059 ft 495 kts 61°
2026-04-30 02:15 -23.88848 162.05095 37086 ft 497 kts 61°
2026-04-30 02:15 -23.85890 162.11919 37088 ft 497 kts 61°
2026-04-30 02:16 -23.82931 162.18739 37088 ft 497 kts 61°
2026-04-30 02:16 -23.79990 162.25507 37086 ft 497 kts 61°
2026-04-30 02:17 -23.77026 162.32317 37094 ft 496 kts 61°
2026-04-30 02:17 -23.74068 162.39103 37095 ft 495 kts 61°
2026-04-30 02:18 -23.71107 162.45887 37080 ft 495 kts 60°
2026-04-30 02:18 -23.68145 162.52662 37086 ft 495 kts 60°
2026-04-30 02:19 -23.65178 162.59440 37085 ft 495 kts 60°
2026-04-30 02:19 -23.62210 162.66210 37088 ft 494 kts 60°
2026-04-30 02:20 -23.59243 162.72968 37095 ft 494 kts 60°
2026-04-30 02:20 -23.56272 162.79724 37082 ft 494 kts 60°
2026-04-30 02:21 -23.53303 162.86468 37084 ft 494 kts 60°
2026-04-30 02:21 -23.50326 162.93219 37079 ft 494 kts 60°
2026-04-30 02:22 -23.47357 162.99967 37083 ft 494 kts 61°
2026-04-30 02:22 -23.44663 163.06863 37079 ft 495 kts 64°
2026-04-30 02:23 -23.42118 163.13852 37081 ft 497 kts 64°
2026-04-30 02:23 -23.39559 163.20846 37080 ft 497 kts 64°
2026-04-30 02:24 -23.36986 163.27779 37080 ft 497 kts 64°
2026-04-30 02:24 -23.34378 163.34753 37077 ft 497 kts 64°
2026-04-30 02:25 -23.31766 163.41717 37081 ft 497 kts 64°
2026-04-30 02:25 -23.29152 163.48681 37081 ft 497 kts 64°
2026-04-30 02:26 -23.26535 163.55642 37078 ft 497 kts 63°
2026-04-30 02:26 -23.23917 163.62598 37073 ft 497 kts 63°
2026-04-30 02:27 -23.21297 163.69547 37077 ft 497 kts 63°
2026-04-30 02:27 -23.18675 163.76492 37075 ft 497 kts 63°
2026-04-30 02:28 -23.16040 163.83457 37075 ft 498 kts 63°
2026-04-30 02:28 -23.13419 163.90377 37067 ft 498 kts 63°
2026-04-30 02:29 -23.10781 163.97334 37067 ft 498 kts 63°
2026-04-30 02:29 -23.08136 164.04296 37067 ft 498 kts 63°
2026-04-30 02:30 -23.05493 164.11242 37065 ft 498 kts 63°
2026-04-30 02:30 -23.02847 164.18186 37066 ft 498 kts 63°
2026-04-30 02:31 -23.00627 164.24001 37066 ft 498 kts 63°
2026-04-30 02:31 -22.97977 164.30935 37064 ft 498 kts 63°
2026-04-30 02:32 -22.95340 164.37826 37048 ft 498 kts 62°
2026-04-30 02:32 -22.92683 164.44756 37059 ft 498 kts 62°
2026-04-30 02:33 -22.90022 164.51686 37062 ft 498 kts 62°
2026-04-30 02:33 -22.87359 164.58613 37061 ft 498 kts 62°
2026-04-30 02:34 -22.84692 164.65536 37059 ft 498 kts 62°
2026-04-30 02:34 -22.82022 164.72459 37059 ft 498 kts 62°
2026-04-30 02:35 -22.79353 164.79371 37059 ft 497 kts 62°
2026-04-30 02:35 -22.76681 164.86278 37059 ft 497 kts 62°
2026-04-30 02:36 -22.74005 164.93184 37055 ft 497 kts 62°
2026-04-30 02:36 -22.71328 165.00081 37056 ft 497 kts 62°
2026-04-30 02:37 -22.68645 165.06987 37059 ft 497 kts 62°
2026-04-30 02:37 -22.65963 165.13878 37050 ft 497 kts 61°
2026-04-30 02:38 -22.63278 165.20770 37050 ft 496 kts 61°
2026-04-30 02:38 -22.60593 165.27646 37051 ft 496 kts 61°
2026-04-30 02:39 -22.57903 165.34527 37054 ft 496 kts 61°
2026-04-30 02:39 -22.55210 165.41405 37050 ft 496 kts 61°
2026-04-30 02:40 -22.52515 165.48279 37048 ft 496 kts 61°
2026-04-30 02:40 -22.49834 165.55107 37048 ft 496 kts 61°
2026-04-30 02:41 -22.47114 165.62024 37048 ft 496 kts 61°
2026-04-30 02:41 -22.44430 165.68840 37036 ft 496 kts 61°
2026-04-30 02:42 -22.41724 165.75702 37040 ft 496 kts 61°
2026-04-30 02:42 -22.39015 165.82560 37037 ft 496 kts 60°
2026-04-30 02:43 -22.36305 165.89413 37046 ft 496 kts 60°
2026-04-30 02:43 -22.33591 165.96265 37032 ft 496 kts 60°
2026-04-30 02:44 -22.30874 166.03114 37033 ft 496 kts 60°
2026-04-30 02:44 -22.28155 166.09959 37033 ft 496 kts 60°
2026-04-30 02:45 -22.25437 166.16793 37038 ft 496 kts 60°
2026-04-30 02:45 -22.22711 166.23634 37039 ft 496 kts 60°
2026-04-30 02:46 -22.19986 166.30463 37041 ft 495 kts 60°
2026-04-30 02:46 -22.17258 166.37291 37045 ft 495 kts 60°
2026-04-30 02:47 -22.14534 166.44102 37045 ft 495 kts 60°
2026-04-30 02:47 -22.11803 166.50916 37049 ft 495 kts 59°
2026-04-30 02:48 -22.09068 166.57732 37052 ft 495 kts 59°
2026-04-30 02:48 -22.06330 166.64545 37050 ft 495 kts 59°
2026-04-30 02:49 -22.03591 166.71354 37041 ft 495 kts 60°
2026-04-30 02:49 -22.00842 166.78171 37057 ft 496 kts 59°
2026-04-30 02:50 -21.98115 166.84929 37056 ft 495 kts 59°
2026-04-30 02:50 -21.95367 166.91733 37063 ft 495 kts 59°
2026-04-30 02:51 -21.92616 166.98531 37037 ft 495 kts 59°
2026-04-30 02:51 -21.89863 167.05326 37056 ft 495 kts 59°
2026-04-30 02:52 -21.87109 167.12112 37054 ft 494 kts 59°
2026-04-30 02:52 -21.84335 167.18937 37052 ft 494 kts 59°
2026-04-30 02:53 -21.81595 167.25670 37047 ft 494 kts 59°
2026-04-30 02:53 -21.78836 167.32441 37048 ft 494 kts 59°
2026-04-30 02:54 -21.76078 167.39201 37048 ft 494 kts 59°
2026-04-30 02:54 -21.73314 167.45965 37047 ft 494 kts 59°
2026-04-30 02:55 -21.70547 167.52725 37051 ft 494 kts 59°
2026-04-30 02:55 -21.67779 167.59481 37049 ft 494 kts 58°
2026-04-30 02:56 -21.65010 167.66229 37041 ft 493 kts 59°
2026-04-30 02:56 -21.62245 167.72963 37048 ft 491 kts 59°
2026-04-30 02:57 -21.59483 167.79674 37049 ft 491 kts 59°
2026-04-30 02:57 -21.56718 167.86383 37053 ft 491 kts 59°
2026-04-30 02:58 -21.53952 167.93088 37048 ft 491 kts 58°
2026-04-30 02:58 -21.51181 167.99796 37048 ft 491 kts 59°
2026-04-30 02:59 -21.48415 168.06485 37047 ft 490 kts 59°
2026-04-30 02:59 -21.45647 168.13166 37051 ft 490 kts 59°
2026-04-30 03:00 -21.42879 168.19839 37043 ft 490 kts 59°
2026-04-30 03:00 -21.40104 168.26520 37053 ft 490 kts 59°
2026-04-30 03:01 -21.37328 168.33195 37044 ft 489 kts 59°
2026-04-30 03:01 -21.35944 168.36520 37048 ft 489 kts 59°